{"data":{"norad_id":68508,"intl_designator":"2026-068A","name":"STARLINK-37262","alt_names":[],"object_type":"PAYLOAD","status":"ACTIVE","operator":null,"country":"US","launch_date":"2026-03-30","launch_site_code":"AFETR","launch_vehicle":null,"mission":null,"orbit_class":"UNKNOWN","rcs_meters":null,"size_class":null,"mass_kg":null,"dimensions":null,"purposes":["comms"],"wikipedia_slug":null,"has_3d_model":false,"image_url":null,"decayed_at":null,"tle_current":{"epoch":"2026-09-19T13:53:09.744000Z","epoch_age_seconds":126981,"freshness":"FRESH","line1":"1 68508U 26068A   26262.57858500  .00020229  00000+0  60822-3 0  9990","line2":"2 68508  53.1591 298.3654 0001622  82.7056 277.4131 15.34400326 26774","mean_motion":15.34400326,"eccentricity":0.0001622,"inclination_deg":53.1591,"raan_deg":298.3654,"arg_perigee_deg":82.7056,"mean_anomaly_deg":277.4131,"bstar":0.00060822,"rev_number":2677,"period_min":93.84773814236,"perigee_km":461.59268713678,"apogee_km":463.81185539637,"semimajor_km":6840.8392712666,"source":"CELESTRAK","updated_at":"2026-09-20T09:00:43.900155Z"}}}